Previsão horária em Barlogi

Hoje, 29 Julho, Quinta-feira

Tempo Temperatura Precipitação Vento Pressão Humidade
00:00 +19°C° 0 mm 3 m/s 749 mmHg 89%
01:00 +18°C° 0 mm 3 m/s 750 mmHg 90%
02:00 +18°C° 0 mm 3 m/s 750 mmHg 91%
03:00 +17°C° 0 mm 3 m/s 749 mmHg 93%
04:00 +17°C° 0 mm 3 m/s 749 mmHg 94%
05:00 +18°C° 0 mm 3 m/s 750 mmHg 88%
06:00 +19°C° 0 mm 4 m/s 750 mmHg 82%
07:00 +20°C° 0 mm 4 m/s 750 mmHg 77%
08:00 +22°C° 0 mm 4 m/s 750 mmHg 70%
09:00 +25°C° 0 mm 5 m/s 750 mmHg 62%
10:00 +26°C° 0 mm 5 m/s 750 mmHg 55%
11:00 +26°C° 0 mm 5 m/s 750 mmHg 55%
12:00 +26°C° 0 mm 5 m/s 749 mmHg 54%
13:00 +26°C° 0 mm 5 m/s 749 mmHg 53%
14:00 +26°C° 0 mm 5 m/s 749 mmHg 49%
15:00 +27°C° 0 mm 6 m/s 749 mmHg 45%
16:00 +28°C° 0 mm 6 m/s 749 mmHg 42%
17:00 +26°C° 0 mm 5 m/s 749 mmHg 45%
18:00 +25°C° 0 mm 5 m/s 749 mmHg 49%
19:00 +22°C° 0 mm 5 m/s 749 mmHg 53%
20:00 +21°C° 0 mm 4 m/s 749 mmHg 57%
21:00 +20°C° 0 mm 3 m/s 749 mmHg 61%
22:00 +19°C° 0 mm 3 m/s 750 mmHg 65%
23:00 +18°C° 0 mm 3 m/s 750 mmHg 66%

Amanhã, 30 Julho, Sexta-feira

Tempo Temperatura Precipitação Vento Pressão Humidade
00:00 +18°C° 0 mm 3 m/s 750 mmHg 67%
01:00 +17°C° 0 mm 3 m/s 750 mmHg 69%
02:00 +17°C° 0 mm 3 m/s 750 mmHg 70%
03:00 +16°C° 0 mm 3 m/s 750 mmHg 71%
04:00 +16°C° 0 mm 3 m/s 750 mmHg 72%
05:00 +17°C° 0 mm 3 m/s 750 mmHg 69%
06:00 +18°C° 0 mm 4 m/s 750 mmHg 66%
07:00 +19°C° 0 mm 4 m/s 750 mmHg 63%
08:00 +21°C° 0 mm 5 m/s 750 mmHg 58%
09:00 +22°C° 0 mm 5 m/s 749 mmHg 52%
10:00 +25°C° 0 mm 5 m/s 749 mmHg 47%
11:00 +26°C° 0 mm 6 m/s 749 mmHg 44%
12:00 +26°C° 0 mm 6 m/s 748 mmHg 42%
13:00 +27°C° 0 mm 6 m/s 748 mmHg 40%
14:00 +27°C° 0 mm 6 m/s 748 mmHg 40%
15:00 +28°C° 0 mm 6 m/s 748 mmHg 40%
16:00 +28°C° 0 mm 6 m/s 747 mmHg 39%
17:00 +26°C° 0 mm 5 m/s 747 mmHg 45%
18:00 +25°C° 0 mm 4 m/s 747 mmHg 50%
19:00 +22°C° 0 mm 3 m/s 747 mmHg 55%
20:00 +21°C° 0 mm 2 m/s 747 mmHg 56%
21:00 +20°C° 0 mm 2 m/s 747 mmHg 57%
22:00 +19°C° 0 mm 2 m/s 747 mmHg 59%
23:00 +20°C° 0 mm 1 m/s 747 mmHg 60%

Depois de amanhã, 31 Julho, Sábado

Tempo Temperatura Precipitação Vento Pressão Humidade
00:00 +19°C° 0 mm 1 m/s 747 mmHg 61%
01:00 +17°C° 0 mm 0 m/s 747 mmHg 62%
02:00 +19°C° 0 mm 1 m/s 747 mmHg 63%
03:00 +19°C° 0 mm 1 m/s 747 mmHg 64%
04:00 +18°C° 0 mm 1 m/s 747 mmHg 64%
05:00 +19°C° 0 mm 2 m/s 747 mmHg 62%
06:00 +21°C° 0 mm 2 m/s 747 mmHg 59%
07:00 +23°C° 0 mm 2 m/s 747 mmHg 56%
08:00 +24°C° 0 mm 3 m/s 747 mmHg 53%
09:00 +26°C° 0 mm 3 m/s 747 mmHg 51%
10:00 +27°C° 0 mm 4 m/s 746 mmHg 49%
11:00 +26°C° 0.1 mm 4 m/s 746 mmHg 54%
12:00 +26°C° 0.1 mm 4 m/s 746 mmHg 59%
13:00 +25°C° 0.1 mm 4 m/s 746 mmHg 64%
14:00 +25°C° 0.2 mm 4 m/s 746 mmHg 62%
15:00 +26°C° 0.2 mm 4 m/s 746 mmHg 60%
16:00 +26°C° 0.2 mm 4 m/s 746 mmHg 59%
17:00 +25°C° 0.1 mm 4 m/s 746 mmHg 62%
18:00 +23°C° 0.1 mm 4 m/s 746 mmHg 65%
19:00 +22°C° 0.1 mm 4 m/s 746 mmHg 68%
20:00 +21°C° 0 mm 3 m/s 746 mmHg 66%
21:00 +20°C° 0 mm 3 m/s 746 mmHg 64%
22:00 +19°C° 0 mm 3 m/s 746 mmHg 62%
23:00 +18°C° 0 mm 3 m/s 747 mmHg 63%

1 Agosto, Domingo

Tempo Temperatura Precipitação Vento Pressão Humidade
00:00 +17°C° 0 mm 3 m/s 747 mmHg 64%
01:00 +17°C° 0 mm 3 m/s 747 mmHg 65%
02:00 +16°C° 0 mm 3 m/s 747 mmHg 67%
03:00 +16°C° 0 mm 3 m/s 747 mmHg 70%
04:00 +14°C° 0 mm 3 m/s 747 mmHg 72%
05:00 +17°C° 0 mm 3 m/s 747 mmHg 69%
06:00 +18°C° 0 mm 3 m/s 747 mmHg 67%
07:00 +19°C° 0 mm 3 m/s 747 mmHg 64%
08:00 +20°C° 0 mm 3 m/s 747 mmHg 60%
09:00 +21°C° 0 mm 4 m/s 748 mmHg 57%
10:00 +22°C° 0 mm 4 m/s 748 mmHg 53%
11:00 +21°C° 0.2 mm 4 m/s 748 mmHg 63%
12:00 +19°C° 0.2 mm 3 m/s 748 mmHg 72%
13:00 +18°C° 0.2 mm 3 m/s 748 mmHg 81%
14:00 +18°C° 0.1 mm 3 m/s 748 mmHg 82%
15:00 +18°C° 0.1 mm 2 m/s 748 mmHg 83%
16:00 +18°C° 0.1 mm 2 m/s 748 mmHg 84%
17:00 +18°C° 0 mm 2 m/s 748 mmHg 84%
18:00 +18°C° 0 mm 2 m/s 748 mmHg 84%
19:00 +17°C° 0 mm 2 m/s 748 mmHg 83%
20:00 +17°C° 0 mm 2 m/s 748 mmHg 85%
21:00 +17°C° 0 mm 2 m/s 748 mmHg 87%
22:00 +16°C° 0 mm 2 m/s 748 mmHg 89%
23:00 +16°C° 0.3 mm 2 m/s 748 mmHg 91%

2 Agosto, Segunda-feira

Tempo Temperatura Precipitação Vento Pressão Humidade
00:00 +16°C° 0.3 mm 2 m/s 748 mmHg 92%
01:00 +16°C° 0.3 mm 2 m/s 748 mmHg 93%
02:00 +16°C° 0.1 mm 2 m/s 748 mmHg 92%
03:00 +16°C° 0.1 mm 2 m/s 748 mmHg 91%
04:00 +16°C° 0.1 mm 2 m/s 748 mmHg 90%
05:00 +16°C° 0 mm 2 m/s 749 mmHg 84%
06:00 +17°C° 0 mm 2 m/s 749 mmHg 77%
07:00 +18°C° 0 mm 2 m/s 749 mmHg 71%
08:00 +19°C° 0 mm 3 m/s 750 mmHg 64%
09:00 +21°C° 0 mm 3 m/s 750 mmHg 57%
10:00 +22°C° 0 mm 4 m/s 750 mmHg 50%
11:00 +23°C° 0 mm 4 m/s 750 mmHg 48%
12:00 +25°C° 0 mm 4 m/s 750 mmHg 45%
13:00 +25°C° 0 mm 4 m/s 750 mmHg 42%
14:00 +25°C° 0 mm 3 m/s 750 mmHg 44%
15:00 +24°C° 0 mm 3 m/s 750 mmHg 47%
16:00 +24°C° 0 mm 2 m/s 750 mmHg 49%
17:00 +23°C° 0 mm 2 m/s 750 mmHg 53%
18:00 +21°C° 0 mm 2 m/s 750 mmHg 57%
19:00 +20°C° 0 mm 2 m/s 750 mmHg 60%
20:00 +19°C° 0.1 mm 2 m/s 750 mmHg 67%
21:00 +18°C° 0.1 mm 2 m/s 750 mmHg 74%
22:00 +17°C° 0.1 mm 2 m/s 751 mmHg 81%
23:00 +16°C° 0 mm 2 m/s 751 mmHg 83%

3 Agosto, Terça-feira

Tempo Temperatura Precipitação Vento Pressão Humidade
00:00 +16°C° 0 mm 2 m/s 751 mmHg 86%
01:00 +14°C° 0 mm 3 m/s 751 mmHg 88%
02:00 +14°C° 0 mm 3 m/s 751 mmHg 89%
03:00 +15°C° 0 mm 2 m/s 751 mmHg 91%
04:00 +14°C° 0 mm 2 m/s 751 mmHg 92%
05:00 +16°C° 0 mm 2 m/s 752 mmHg 86%
06:00 +17°C° 0 mm 3 m/s 752 mmHg 81%
07:00 +19°C° 0 mm 3 m/s 752 mmHg 75%
08:00 +20°C° 0 mm 3 m/s 752 mmHg 68%
09:00 +21°C° 0 mm 3 m/s 752 mmHg 62%
10:00 +24°C° 0 mm 3 m/s 752 mmHg 55%
11:00 +25°C° 0 mm 3 m/s 752 mmHg 51%
12:00 +26°C° 0 mm 4 m/s 752 mmHg 47%
13:00 +27°C° 0 mm 4 m/s 752 mmHg 44%
14:00 +26°C° 0 mm 4 m/s 752 mmHg 45%
15:00 +26°C° 0 mm 3 m/s 751 mmHg 47%
16:00 +26°C° 0 mm 3 m/s 751 mmHg 48%
17:00 +23°C° 1.1 mm 2 m/s 751 mmHg 59%
18:00 +20°C° 1.1 mm 2 m/s 751 mmHg 71%
19:00 +19°C° 1.1 mm 1 m/s 751 mmHg 82%
20:00 +17°C° 0.6 mm 2 m/s 752 mmHg 85%
21:00 +17°C° 0.6 mm 2 m/s 752 mmHg 88%
22:00 +16°C° 0.6 mm 2 m/s 752 mmHg 91%
23:00 +16°C° 0.4 mm 1 m/s 752 mmHg 91%
Mostrar mais